Wind_Speed
25 27 27 27 27 26 26 26 27 29 28 28 27 25 25 25 24 22 22 22 20 19 19 19 20 21 20 17 12 11 6 11 16 17 17 18 17 21 23 24 26 28 33 34
30 30 29 29 28 27 28 28 27 29 30 31 30 28 27 27 26 25 25 23 23 22 22 19 19 21 22 20 16 12 13 12 13 16 18 22 25 25 24 26 29 29 29 31
33 32 33 31 28 28 28 28 28 28 32 33 33 30 29 30 27 25 28 26 24 24 22 21 20 19 23 23 19 15 14 14 17 16 17 21 26 29 29 30 31 29 26 25
35 35 35 33 30 28 29 29 31 32 32 32 35 35 29 29 28 26 28 29 27 26 24 24 22 21 24 25 22 20 17 17 17 20 21 22 28 26 27 26 31 33 30 27
39 38 36 33 32 31 31 32 33 33 35 35 35 39 34 29 29 30 29 29 29 27 28 26 26 26 25 30 27 23 21 22 21 19 21 27 29 34 31 29 31 35 30 30
42 40 37 38 38 35 32 33 33 33 34 35 34 40 36 30 33 29 25 29 29 28 31 29 29 31 34 33 32 29 26 23 24 27 26 26 28 31 35 40 35 34 34 32
45 43 41 43 38 36 34 34 33 33 32 37 33 35 39 33 37 33 27 25 28 31 32 33 36 37 37 38 36 35 33 30 30 29 31 30 30 31 35 37 43 45 38 31
47 47 42 47 38 34 33 35 31 31 30 34 31 31 32 31 33 37 33 30 32 33 33 38 40 42 41 40 39 38 38 37 35 35 35 35 33 32 36 37 42 49 43 35
51 50 45 39 39 36 28 33 30 29 27 26 30 33 30 27 32 38 40 40 41 44 43 42 44 44 46 44 42 43 43 42 41 40 39 39 40 36 35 39 39 45 52 54
53 51 44 31 41 31 33 30 30 31 29 29 33 38 38 29 33 38 44 48 47 48 48 48 48 47 46 48 48 47 48 47 48 47 44 42 43 40 37 38 40 45 55 58
51 44 45 28 34 35 31 33 34 35 34 35 36 46 43 41 42 45 48 49 49 49 50 50 50 49 49 50 51 52 53 53 52 51 49 47 44 42 41 39 39 41 56 61
47 43 39 35 32 33 35 33 35 36 39 40 44 48 53 48 48 49 51 55 51 53 54 53 53 54 55 54 54 53 56 55 56 54 54 52 46 44 42 39 41 39 50 68
47 40 40 42 45 37 32 42 45 44 45 47 48 51 55 53 51 51 53 57 57 58 60 59 58 58 59 61 60 57 58 58 58 56 55 55 48 44 44 41 41 37 44 66
45 46 46 48 51 47 45 42 46 50 50 52 54 54 57 58 56 60 60 58 58 59 60 60 63 64 63 65 65 62 62 61 59 58 56 52 46 39 40 42 42 37 46 62
51 50 51 50 52 54 50 48 49 51 51 53 56 58 61 60 58 61 63 63 64 66 68 66 67 66 66 66 67 65 63 61 60 57 54 52 47 39 35 42 43 38 43 62
56 54 53 53 54 53 54 55 57 55 56 58 59 61 64 59 62 65 65 67 68 71 71 72 73 74 73 71 69 64 61 58 57 57 54 49 43 38 35 39 43 39 43 62
53 59 56 54 57 56 55 60 59 61 64 65 66 66 70 68 69 68 68 69 72 73 74 77 77 77 77 75 71 65 60 56 55 52 49 45 42 35 36 38 40 41 44 59
61 57 58 59 61 60 64 65 64 64 67 70 70 71 75 71 75 76 72 74 78 77 78 79 78 76 75 72 67 63 56 54 53 49 45 40 37 40 37 35 42 41 45 54
64 63 63 64 65 65 69 71 67 69 72 74 73 76 78 79 79 83 82 83 83 81 79 75 73 71 69 66 62 56 52 49 48 43 39 38 38 41 42 37 39 38 44 49
68 67 69 71 71 72 75 79 72 74 76 78 77 81 83 84 85 90 91 88 83 81 73 71 69 66 64 60 55 48 45 45 43 39 36 36 40 38 39 40 40 36 46 52
74 72 74 77 77 80 82 83 81 83 83 84 85 87 88 90 91 92 90 85 82 80 73 71 66 62 58 53 43 43 40 41 37 35 32 35 39 41 42 41 45 30 39 47
81 81 80 81 83 82 85 86 87 89 87 88 88 91 93 94 87 86 85 80 75 69 68 64 61 56 50 44 34 36 36 37 36 36 33 34 38 39 44 43 43 38 36 35
84 88 87 91 90 91 91 93 96 94 93 92 94 93 89 82 76 74 73 63 58 58 59 58 55 50 41 35 34 35 33 36 34 36 35 33 34 38 37 37 40 39 30 38
92 94 93 93 92 99 100 100 100 98 99 93 89 83 77 70 69 66 67 55 55 56 56 52 50 43 38 35 39 36 33 38 39 40 40 32 30 37 33 35 35 37 42 38
96 101 98 98 99 101 99 97 95 95 94 86 81 77 72 69 68 63 70 66 59 60 57 52 48 43 38 35 36 34 34 43 41 43 40 35 28 31 32 32 33 31 33 37
98 101 100 97 96 95 93 91 91 88 84 83 78 73 71 71 72 70 66 64 64 60 55 49 45 36 37 40 38 33 36 47 44 46 43 41 32 33 35 36 33 33 27 21
Wind_Direction
327 324 323 317 312 307 304 303 302 300 299 300 303 305 306 310 313 317 317 315 321 328 333 342 350 354 359 354 336 322 278 241 242 255 241 235 227 220 218 218 224 231 237 236
322 322 321 317 313 308 306 302 298 296 295 295 297 299 301 305 308 313 313 311 313 310 314 322 331 341 345 351 346 318 304 284 259 245 236 231 229 230 233 226 225 234 235 247
318 317 317 315 311 307 307 304 296 291 290 292 293 294 296 299 303 306 307 306 309 304 304 308 312 326 331 335 339 327 301 288 281 268 256 234 233 233 237 241 238 239 241 246
314 314 314 312 309 304 303 300 295 292 290 288 289 293 297 291 294 295 297 302 304 304 306 305 304 312 318 324 327 324 311 295 287 278 270 254 222 219 232 244 243 243 240 243
311 311 310 311 308 302 298 296 296 292 288 289 287 291 294 298 295 295 297 295 299 302 306 303 307 309 312 315 317 317 312 301 293 281 271 265 246 238 233 238 242 234 239 244
308 308 309 308 307 301 295 293 292 290 286 285 285 286 292 301 294 290 288 291 295 301 302 302 305 307 310 311 312 311 308 301 293 291 283 267 259 253 250 245 243 235 234 242
306 306 308 307 305 299 295 292 290 286 280 281 286 282 291 297 296 295 291 287 294 296 298 302 304 305 307 307 309 308 308 306 301 293 287 281 269 254 253 251 242 238 232 239
304 302 307 305 301 294 291 289 288 288 288 288 291 282 287 289 298 297 302 302 300 298 298 302 302 303 305 306 306 306 305 303 299 295 290 285 276 266 256 251 248 233 228 230
300 302 304 299 293 291 283 282 284 283 285 287 289 292 289 297 295 297 298 299 298 298 300 299 301 302 304 303 303 304 303 301 298 295 291 287 284 275 264 252 249 238 222 220
298 303 298 297 287 284 282 279 278 279 280 285 287 286 291 288 284 283 288 292 297 298 298 299 300 301 301 301 303 303 301 300 299 298 295 291 286 278 269 253 246 240 222 219
298 296 295 294 278 286 280 281 274 275 275 275 276 280 285 289 289 289 291 291 292 294 296 298 299 299 298 298 299 298 296 296 296 296 293 292 287 282 272 262 250 240 230 218
295 289 290 291 284 279 285 278 270 273 274 279 281 285 290 290 290 292 296 295 297 297 298 298 297 297 297 295 292 292 293 292 291 291 292 290 287 282 272 261 253 244 230 217
285 287 288 288 288 287 276 281 284 282 283 283 285 286 287 289 292 296 296 295 297 297 298 297 296 296 296 295 294 294 293 292 291 289 287 287 286 280 273 264 254 244 228 216
284 287 286 287 287 287 286 281 281 288 290 289 291 290 291 294 298 297 296 295 295 294 293 293 294 295 294 294 294 294 294 292 289 288 286 284 281 275 268 261 253 243 226 216
283 284 285 286 286 290 289 286 286 286 289 290 289 291 291 294 297 294 294 294 296 295 295 295 293 292 292 292 292 292 292 291 289 286 283 280 277 274 262 256 251 243 225 216
282 282 284 284 285 287 289 290 290 292 292 290 290 290 292 295 294 293 294 295 296 294 294 295 295 294 293 292 291 290 290 287 284 282 279 275 272 265 254 248 250 243 225 216
275 283 285 284 285 287 287 286 290 292 294 294 294 296 295 296 293 294 293 295 293 292 292 294 294 293 293 293 291 291 289 286 281 279 275 271 265 257 246 242 245 239 227 215
280 280 282 285 287 290 286 288 291 295 293 292 295 295 294 295 295 294 294 294 295 294 294 295 294 292 291 290 289 289 287 281 277 276 273 262 252 249 241 240 241 235 225 218
280 284 284 285 286 288 288 289 294 292 292 293 297 294 295 297 297 296 297 296 296 296 295 295 293 291 290 289 289 288 283 276 275 274 265 254 245 247 239 238 238 231 219 219
281 282 285 287 288 290 289 290 293 294 291 295 294 293 295 295 297 297 297 297 295 293 293 292 290 288 288 288 286 283 279 271 273 268 258 246 243 236 234 230 231 224 218 214
281 282 285 287 288 288 289 292 294 291 293 294 296 296 297 297 298 297 295 294 293 295 292 289 286 286 287 285 283 278 270 269 265 259 251 244 235 231 228 227 233 232 228 221
282 283 283 282 285 286 289 287 289 290 291 292 294 294 294 298 297 293 292 293 292 292 289 288 286 286 285 282 276 268 266 260 254 251 250 238 232 227 230 231 229 236 237 230
280 281 284 286 287 286 286 287 289 290 293 292 292 295 296 296 295 294 292 290 291 289 286 285 284 284 282 277 266 263 256 249 244 240 244 234 226 220 222 229 229 233 230 232
282 283 284 284 286 288 289 290 292 293 292 295 297 297 296 293 294 297 293 291 291 289 287 284 284 283 280 268 261 263 248 235 228 232 235 238 224 222 223 223 224 224 229 232
283 284 285 287 286 289 290 289 290 291 292 295 294 293 291 292 296 297 289 295 295 291 288 285 283 279 269 249 250 247 236 223 221 228 236 238 222 209 206 206 212 211 221 228
283 285 287 289 290 290 289 288 289 291 291 292 293 292 291 292 293 289 285 288 287 283 285 285 279 267 255 237 243 237 213 213 220 224 230 235 223 206 212 216 220 211 214 236
Height
10977 10974 10971 10969 10965 10962 10960 10957 10956 10953 10951 10949 10949 10948 10947 10945 10945 10944 10943 10941 10939 10937 10935 10932 10929 10927 10926 10925 10924 10922 10921 10920 10920 10921 10922 10925 10927 10929 10930 10932 10935 10938 10942 10942
10972 10969 10967 10963 10960 10958 10955 10953 10950 10948 10946 10944 10943 10942 10941 10941 10940 10939 10938 10937 10934 10933 10930 10930 10928 10925 10923 10922 10922 10920 10918 10918 10918 10918 10917 10919 10921 10924 10927 10927 10928 10930 10933 10937
10967 10964 10961 10958 10955 10953 10950 10948 10945 10943 10940 10939 10938 10938 10936 10935 10936 10935 10932 10931 10930 10929 10928 10925 10924 10922 10920 10918 10918 10917 10915 10914 10913 10914 10914 10914 10915 10917 10919 10921 10923 10924 10924 10926
10961 10959 10955 10952 10949 10946 10945 10941 10938 10936 10935 10934 10931 10930 10933 10931 10931 10930 10929 10926 10924 10922 10920 10919 10918 10917 10915 10914 10914 10911 10909 10908 10908 10908 10908 10909 10908 10910 10912 10914 10915 10917 10916 10918
10955 10952 10949 10946 10943 10940 10937 10934 10931 10930 10927 10925 10924 10920 10924 10925 10923 10921 10922 10920 10918 10917 10914 10912 10911 10909 10910 10907 10907 10906 10904 10902 10901 10901 10902 10901 10902 10905 10906 10906 10905 10907 10910 10911
10946 10944 10941 10938 10935 10932 10929 10926 10924 10921 10919 10919 10919 10912 10912 10917 10913 10913 10915 10913 10911 10911 10907 10906 10904 10903 10900 10900 10898 10897 10897 10897 10895 10892 10892 10892 10893 10895 10895 10898 10899 10898 10901 10904
10937 10936 10934 10930 10927 10923 10921 10919 10917 10915 10913 10909 10912 10909 10903 10909 10903 10903 10905 10906 10904 10902 10901 10899 10896 10895 10893 10890 10888 10886 10885 10885 10885 10885 10882 10882 10883 10884 10884 10885 10886 10890 10892 10897
10930 10927 10927 10919 10919 10917 10914 10910 10910 10907 10907 10902 10903 10904 10901 10902 10900 10895 10894 10895 10895 10894 10894 10890 10888 10885 10883 10880 10877 10876 10874 10874 10874 10873 10872 10870 10872 10873 10872 10873 10872 10877 10884 10890
10920 10918 10917 10913 10908 10907 10909 10904 10904 10903 10902 10901 10897 10892 10893 10896 10895 10891 10888 10887 10886 10883 10882 10881 10878 10874 10869 10868 10867 10864 10862 10861 10861 10861 10860 10858 10857 10858 10860 10859 10861 10863 10871 10878
10910 10908 10907 10909 10897 10901 10898 10900 10898 10896 10896 10895 10892 10887 10883 10890 10890 10887 10882 10878 10877 10874 10871 10869 10866 10864 10860 10855 10853 10851 10849 10848 10847 10846 10845 10843 10842 10843 10844 10846 10847 10847 10855 10862
10902 10900 10894 10900 10895 10893 10894 10892 10891 10890 10890 10889 10887 10876 10877 10880 10878 10876 10873 10869 10867 10864 10860 10857 10854 10851 10849 10846 10843 10841 10837 10835 10832 10830 10831 10830 10827 10826 10827 10829 10832 10833 10836 10850
10892 10888 10887 10886 10889 10888 10885 10885 10883 10883 10881 10880 10877 10872 10861 10868 10867 10864 10860 10853 10853 10848 10845 10843 10840 10837 10835 10833 10831 10829 10825 10822 10818 10817 10814 10812 10812 10811 10812 10814 10817 10819 10822 10833
10878 10880 10878 10876 10873 10880 10882 10873 10870 10871 10870 10868 10866 10862 10855 10855 10855 10852 10848 10841 10839 10835 10829 10826 10825 10822 10818 10814 10811 10810 10806 10803 10802 10800 10799 10796 10796 10796 10794 10796 10800 10804 10807 10816
10869 10869 10869 10866 10860 10864 10866 10867 10862 10856 10855 10852 10850 10849 10844 10839 10841 10835 10830 10828 10825 10822 10819 10815 10810 10805 10802 10797 10792 10792 10789 10786 10785 10783 10781 10781 10780 10781 10781 10780 10784 10790 10794 10801
10857 10857 10856 10855 10852 10848 10851 10851 10849 10847 10845 10842 10838 10833 10829 10828 10830 10821 10815 10812 10809 10803 10797 10795 10792 10790 10786 10783 10778 10775 10773 10769 10765 10764 10763 10763 10763 10765 10767 10766 10770 10776 10781 10788
10841 10844 10844 10843 10840 10840 10836 10833 10832 10832 10829 10827 10825 10821 10814 10817 10813 10807 10802 10797 10793 10785 10781 10776 10772 10767 10764 10761 10758 10758 10756 10751 10748 10744 10744 10746 10748 10750 10752 10755 10757 10762 10767 10776
10834 10825 10829 10830 10827 10828 10827 10820 10821 10818 10813 10808 10806 10802 10795 10797 10794 10792 10787 10784 10774 10769 10766 10759 10754 10748 10742 10738 10736 10736 10734 10731 10728 10728 10727 10730 10733 10734 10737 10740 10744 10749 10755 10763
10812 10817 10816 10814 10811 10813 10806 10805 10805 10805 10798 10792 10792 10788 10777 10780 10772 10767 10770 10764 10754 10749 10744 10739 10733 10728 10722 10718 10715 10715 10714 10710 10709 10710 10711 10713 10716 10719 10721 10725 10731 10737 10744 10749
10796 10798 10797 10798 10796 10797 10789 10785 10792 10787 10782 10776 10777 10765 10761 10758 10754 10744 10744 10741 10734 10726 10721 10717 10710 10705 10701 10697 10695 10694 10692 10691 10690 10693 10695 10699 10701 10706 10709 10712 10717 10723 10731 10738
10780 10783 10780 10777 10778 10776 10768 10763 10777 10769 10761 10761 10757 10749 10743 10738 10736 10723 10717 10715 10710 10704 10703 10697 10689 10684 10682 10680 10678 10675 10674 10673 10676 10678 10681 10685 10687 10692 10697 10702 10704 10709 10715 10722
10766 10765 10761 10757 10757 10755 10750 10747 10749 10745 10743 10737 10734 10726 10721 10718 10712 10702 10692 10690 10684 10679 10676 10670 10667 10667 10665 10663 10661 10659 10659 10659 10661 10663 10668 10672 10676 10679 10684 10691 10695 10699 10707 10712
10741 10742 10746 10742 10741 10742 10734 10728 10730 10723 10724 10718 10714 10707 10702 10696 10689 10677 10667 10666 10663 10661 10651 10647 10646 10647 10648 10647 10647 10645 10645 10645 10647 10650 10656 10661 10664 10669 10675 10680 10684 10689 10693 10701
10724 10718 10724 10718 10717 10714 10712 10709 10702 10703 10700 10694 10691 10687 10677 10673 10665 10654 10646 10646 10642 10639 10634 10630 10629 10631 10631 10633 10629 10629 10631 10633 10636 10640 10643 10650 10655 10659 10664 10668 10673 10677 10681 10686
10701 10701 10703 10704 10699 10683 10683 10684 10677 10672 10666 10668 10663 10657 10654 10649 10645 10638 10630 10628 10626 10621 10619 10617 10615 10616 10617 10618 10614 10618 10620 10622 10626 10629 10633 10640 10647 10651 10655 10658 10662 10666 10671 10673
10679 10673 10679 10679 10674 10669 10665 10658 10655 10647 10641 10645 10641 10637 10634 10630 10626 10619 10609 10608 10608 10602 10603 10604 10603 10602 10602 10600 10601 10606 10607 10613 10618 10620 10624 10630 10638 10642 10646 10649 10653 10656 10658 10662
10657 10651 10651 10653 10646 10642 10640 10633 10629 10628 10624 10621 10619 10617 10612 10609 10607 10600 10595 10592 10588 10587 10587 10589 10587 10588 10587 10586 10588 10592 10596 10601 10607 10610 10615 10620 10627 10632 10638 10641 10645 10648 10650 10655